TimeEDT,TemperatureF,Dew PointF,Humidity,Sea Level PressureIn,VisibilityMPH,Wind Direction,Wind SpeedMPH,Gust SpeedMPH,PrecipitationIn,Events,Conditions,WindDirDegrees,DateUTC
12:51 AM,39.9,37.0,89,30.04,10.0,Calm,Calm,-,N/A,,Clear,0,2012-10-18 04:51:00
1:51 AM,42.1,39.0,89,30.04,10.0,Calm,Calm,-,N/A,,Clear,0,2012-10-18 05:51:00
2:51 AM,39.0,37.0,93,30.04,10.0,Calm,Calm,-,N/A,,Partly Cloudy,0,2012-10-18 06:51:00
3:51 AM,35.1,34.0,96,30.04,10.0,Calm,Calm,-,N/A,,Clear,0,2012-10-18 07:51:00
4:51 AM,36.0,34.0,93,30.05,10.0,Calm,Calm,-,N/A,,Clear,0,2012-10-18 08:51:00
5:51 AM,34.0,34.0,100,30.07,9.0,Calm,Calm,-,N/A,,Clear,0,2012-10-18 09:51:00
6:51 AM,34.0,33.1,96,30.09,9.0,Calm,Calm,-,N/A,,Clear,0,2012-10-18 10:51:00
7:51 AM,35.1,35.1,100,30.09,9.0,Calm,Calm,-,N/A,,Clear,0,2012-10-18 11:51:00
8:51 AM,42.1,39.9,92,30.11,10.0,Calm,Calm,-,N/A,,Clear,0,2012-10-18 12:51:00
9:51 AM,45.0,42.1,90,30.10,10.0,Calm,Calm,-,N/A,,Clear,0,2012-10-18 13:51:00
10:51 AM,55.9,37.9,51,30.09,10.0,South,11.5,16.1,N/A,,Clear,180,2012-10-18 14:51:00
11:51 AM,59.0,39.0,48,30.07,10.0,SSE,10.4,-,N/A,,Clear,160,2012-10-18 15:51:00
12:51 PM,62.1,35.1,37,30.06,10.0,South,11.5,-,N/A,,Clear,190,2012-10-18 16:51:00
1:51 PM,63.0,32.0,31,30.05,10.0,SSE,16.1,21.9,N/A,,Clear,160,2012-10-18 17:51:00
2:51 PM,63.0,33.1,33,30.03,10.0,South,16.1,23.0,N/A,,Clear,170,2012-10-18 18:51:00
3:51 PM,64.0,35.1,34,30.03,10.0,South,18.4,-,N/A,,Clear,170,2012-10-18 19:51:00
4:51 PM,62.1,36.0,38,30.03,10.0,SSE,11.5,-,N/A,,Clear,160,2012-10-18 20:51:00
5:51 PM,57.2,33.8,41,30.02,10.0,SSE,9.2,-,N/A,,Clear,150,2012-10-18 21:51:00
6:51 PM,55.0,34.0,45,30.06,10.0,SSE,9.2,-,N/A,,Clear,150,2012-10-18 22:51:00
7:51 PM,51.1,36.0,56,30.08,10.0,SSE,4.6,-,N/A,,Clear,160,2012-10-18 23:51:00
8:51 PM,51.1,37.9,61,30.10,10.0,South,8.1,-,N/A,,Clear,170,2012-10-19 00:51:00
9:51 PM,51.1,43.0,74,30.12,10.0,South,10.4,-,N/A,,Clear,170,2012-10-19 01:51:00
10:51 PM,50.0,44.1,80,30.10,10.0,South,6.9,-,N/A,,Clear,170,2012-10-19 02:51:00
11:51 PM,48.9,44.1,83,30.10,10.0,South,8.1,-,N/A,,Partly Cloudy,170,2012-10-19 03:51:00